Showing default

OV1-4, 2121

Orbit data source: Space-Track

OV1-4, 2121 is a payload satellite owned by USAF OAR (US) in LEO that was launched on Wed, 30 Mar 1966 UTC via an ATLAS D launch vehicle from the Air Force Western Test Range (AFWTR). Payload-class satellites include a variety of spacecraft equipped with specific instruments for various scientific and technological missions. These include communications satellites like Starlink; space stations such as the ISS; scientific satellites like the Hubble; Earth observation satellites from companies like Planet Labs, Umbra, and HawkEye 360; GPS; miniature CubeSats for education and research; and military/defense satellites.

Loading next visibility...
Identifier
2121, 1966-025A
Orbit
LEO
Country
Flag of USUS
Related business
Manufacturer
GD/Convair
Mission
Defense Science
Bus & Motor
OV1, Unknown motor
Mass
87 kg wet, 87 kg dry
Launch date (UTC)
1966-03-30 (59 years ago)
Launch vehicle
ATLAS D
Launch site
Air Force Western Test Range (AFWTR)
Object type
Payload
Rocket body
Debris
Shape & HBR
Domed Cyl, 0.7 m
Radar Cross Section
0.946 m², Medium (>0.1 m² and < 1m²)

Expand to show TLE details & history
Last TLE update: 12 hours ago

TLE from 12 hours ago
0 OV1-4
1 02121U 66025A   25242.78848751  .00000354  00000-0  69066-4 0  9991
2 02121 144.5042 343.9453 0082613  92.5456 268.4684 13.87271233 10792
Epoch: 2025-08-30T18:55Z
TLE epoch observation values (Epoch: 2025-08-30T18:55:25.32Z)
Latitude
-0.00001°
Longitude
80.87205°
Altitude
939.345 km
Speed
7.383 km/s
True Right ascension
22h 55m 46s
True Declination
0° 00' 00"
Sunlit
Object was in full shadow at epoch
Visualization orbit readout
Latitude
Unknown
Longitude
Unknown
Altitude
Unknown
Speed
Unknown
Apparent Right ascension
Unknown
Apparent Declination
Unknown
Sunlit
N/A
Visualization observer readout
Local Sidereal Time
22:22:49
Azimuth
Unknown
Elevation
Unknown
Doppler factor
Unknown
Orbital elements
Apogee altitude
1,001.658 km
Perigee altitude
880.723 km
Semi-major axis
7,319.327 km
Eccentricity
0.00826
Inclination
144.5042°
RAAN
343.9453°
Arg. of periapsis
92.5456°
True anomaly
267.52237°
Mean anomaly
268.4684°
Eccentric anomaly
267.99535°
Mean motion
3.46606 °/min
Orbital period
103.86 mins
BSTAR
0.000069066
Loading maneuver chart data...
Computing Atmospheric mass density...
Loading historical data...
Loading historical data...
Loading historical data...
Loading historical data...
Loading historical data...
Loading historical data...
Loading historical data...

Documentation

Showing up to 5 results
|